Theta_e
313 314 314 313 313 312 312 312 312 313 312 312 311 311 311 312 312 312 312 313 313 313 314 315 315 316 316 316 316 316 315 309 307 304 303 304 310 317 323 322 324 328 327 309 302 298 295 294 296 296 296 297 295 295 295 297 295 294 289 283 284 284 285 287 290 291 294 292 294 294 296 301 302 305 309 312 308 309 309 309 310 316 318 323 326 330 332 331
313 313 313 313 313 312 313 312 311 312 312 311 311 312 312 312 312 312 312 313 313 314 314 315 315 316 316 315 316 316 312 307 304 305 305 312 321 321 321 322 325 325 318 305 301 297 295 294 296 295 294 293 294 294 297 294 297 290 286 285 284 284 288 291 292 293 293 292 294 294 293 296 303 306 304 306 304 307 306 306 310 315 321 325 327 328 327 325
313 313 314 313 313 313 312 312 312 312 311 311 312 312 312 312 312 312 312 313 313 314 314 315 315 315 316 316 315 316 311 305 304 300 304 321 321 322 322 323 324 329 310 303 299 297 297 297 297 296 292 293 290 292 293 293 297 290 289 285 285 288 290 293 294 296 295 294 294 293 296 302 303 302 303 305 304 306 305 304 307 314 317 321 323 325 323 322
314 313 313 313 314 313 312 312 312 312 312 312 312 312 311 312 312 312 313 313 314 314 314 315 315 315 315 316 316 313 306 304 300 302 308 323 325 322 323 325 327 328 311 301 297 298 297 298 298 297 295 292 290 294 292 291 293 290 290 286 287 289 291 293 293 294 294 297 294 293 296 296 296 302 305 305 304 304 305 308 309 313 317 319 321 321 320 319
313 313 313 313 313 313 313 313 312 312 312 312 312 312 312 312 312 313 313 313 314 314 314 314 315 315 316 316 316 309 301 291 300 307 311 327 329 326 325 326 327 316 306 300 299 299 298 297 297 296 295 290 289 291 289 291 294 292 289 290 291 291 292 295 295 295 294 295 294 293 294 296 299 305 306 306 302 301 306 309 312 318 319 319 318 318 317 315
312 313 313 313 313 313 313 313 313 312 312 312 312 312 312 312 313 313 313 313 314 314 314 314 314 315 316 316 311 308 299 287 300 305 329 329 329 329 328 328 332 308 301 299 299 299 297 297 296 293 290 291 289 289 288 291 295 289 288 290 292 292 293 293 296 295 296 295 295 295 297 295 299 302 302 297 302 306 310 312 313 319 320 320 320 316 314 314
312 312 312 313 313 313 313 313 313 313 312 312 312 312 312 312 313 313 313 314 314 314 314 314 315 315 315 314 306 305 294 296 304 306 328 331 331 330 332 332 322 301 299 298 299 298 296 296 295 292 293 290 288 289 292 293 294 292 288 290 293 293 293 295 295 294 292 294 296 296 296 294 296 300 298 300 300 303 310 312 312 318 319 318 315 314 314 313
312 312 313 313 313 313 313 313 313 313 313 313 313 312 312 313 313 313 313 313 313 313 314 314 314 315 315 308 304 298 299 298 306 309 333 329 327 329 318 304 300 299 298 296 296 296 297 295 294 295 292 291 290 291 292 293 293 291 289 292 293 294 294 295 294 293 294 292 294 293 295 295 293 296 301 300 303 307 310 311 310 311 313 312 312 311 311 310
312 312 312 313 313 313 313 313 313 313 313 313 313 313 313 313 312 312 312 313 313 313 314 314 314 315 315 308 301 296 296 305 311 315 321 314 313 302 300 300 299 299 297 297 298 297 298 295 296 296 291 291 293 293 292 293 289 291 293 294 293 294 293 294 294 294 293 295 294 295 293 294 296 299 298 299 302 308 310 309 309 309 309 309 310 310 309 308
312 312 312 313 313 313 313 313 313 313 313 313 313 313 313 313 312 312 313 313 313 313 314 314 315 315 309 305 298 292 303 311 309 316 313 315 310 303 301 301 299 298 298 298 298 299 298 296 298 298 297 295 295 293 295 292 289 291 293 293 294 294 293 294 293 293 292 294 294 294 292 296 295 298 292 298 307 309 309 308 309 308 308 308 309 309 309 308
312 312 312 312 312 312 312 313 313 313 313 313 313 313 313 312 312 312 312 313 312 313 314 314 315 313 305 305 293 292 307 303 307 310 312 314 307 301 300 302 299 299 298 299 298 299 300 299 300 302 299 294 295 293 293 293 294 294 294 292 292 292 293 295 293 292 293 297 291 293 293 293 292 297 293 300 307 309 307 307 307 307 307 309 309 309 308 309
312 312 312 312 312 312 312 312 313 313 312 313 313 313 312 312 312 313 312 312 313 313 314 314 315 311 308 303 294 296 309 307 308 308 310 310 305 303 302 303 302 301 300 298 299 300 300 300 300 298 292 296 291 294 293 294 295 295 294 290 290 289 294 294 293 293 295 295 293 291 290 290 289 292 294 304 307 308 308 306 307 306 307 308 308 307 307 307
312 312 312 312 312 312 312 312 313 312 313 312 313 313 312 312 312 312 312 312 313 313 313 314 314 311 304 292 298 307 310 311 305 306 306 305 303 303 304 303 304 303 302 300 299 302 302 300 301 298 297 296 293 292 295 297 295 293 291 289 290 284 287 293 292 293 294 295 292 294 284 280 286 288 298 304 306 306 306 305 306 305 306 307 307 306 305 307
312 312 312 312 312 312 312 312 312 312 313 313 313 313 312 312 312 312 312 312 313 313 313 314 311 308 303 295 302 311 312 310 309 304 302 305 302 300 303 304 304 304 305 301 302 303 304 300 301 299 297 295 293 296 295 292 291 290 290 287 285 286 285 289 291 293 293 294 292 292 285 283 286 288 293 303 306 305 304 305 305 304 305 306 306 305 305 306
312 312 312 312 312 312 312 312 312 312 312 313 313 313 313 312 312 312 313 312 312 313 315 314 308 304 295 297 306 308 325 310 308 306 304 301 300 299 300 301 302 304 304 304 303 303 302 299 298 296 293 297 296 293 288 286 285 285 286 282 281 283 283 288 291 292 292 293 293 291 283 288 288 288 291 301 303 304 304 304 304 304 304 305 306 305 305 306
311 311 311 311 312 312 312 312 312 312 312 313 313 313 313 313 313 313 312 312 312 312 312 306 307 303 295 293 302 321 311 306 307 310 307 303 300 299 299 299 299 300 301 300 305 305 300 300 296 293 295 294 290 285 283 284 282 282 285 280 283 283 283 287 291 291 292 292 293 293 286 285 290 290 292 299 303 303 303 302 301 302 303 305 306 305 304 305
311 311 311 311 311 311 312 312 312 312 313 312 313 313 313 313 314 312 313 312 311 311 309 304 308 306 291 300 310 304 303 303 306 307 307 303 302 301 302 299 299 298 298 299 300 301 297 299 298 296 293 290 288 287 285 277 278 277 283 284 284 285 284 284 288 293 291 292 289 291 289 286 288 290 290 295 302 302 301 301 301 302 303 305 306 305 304 305
311 311 311 311 311 311 311 311 311 312 312 312 311 310 308 312 313 311 308 311 312 310 308 311 307 298 295 303 298 300 305 302 303 303 305 305 303 301 299 298 297 297 298 296 296 297 296 294 293 288 286 285 287 282 281 278 281 282 283 282 285 284 285 286 286 290 292 291 289 289 288 288 288 290 291 294 297 301 301 301 301 302 303 304 305 305 304 304
311 311 311 311 311 311 311 311 311 311 312 311 310 313 313 312 309 306 306 307 301 294 290 297 294 289 289 296 301 303 306 306 303 302 302 302 302 301 301 301 298 296 293 292 292 295 294 293 289 286 285 283 284 284 281 284 285 286 287 286 285 286 284 287 288 291 293 289 288 287 288 289 289 288 290 292 293 297 300 299 299 301 301 303 305 305 304 304
311 311 311 311 311 311 311 311 311 311 312 306 303 307 307 299 297 302 305 305 298 298 298 298 299 300 301 302 301 305 307 305 301 300 301 303 301 298 297 299 297 295 293 290 290 294 296 287 284 283 284 286 288 288 289 289 288 290 289 287 287 286 285 288 289 292 294 287 286 286 286 287 289 288 290 291 292 292 294 297 299 300 301 302 304 304 304 304
310 311 311 311 311 311 311 311 311 311 311 307 304 305 299 298 290 289 295 300 303 303 299 300 303 302 302 303 305 305 302 301 300 298 301 304 298 297 293 294 292 290 287 291 293 297 296 287 284 287 289 290 290 290 291 292 291 290 287 288 284 286 287 289 293 295 296 289 286 288 289 289 290 290 291 293 293 291 293 296 299 300 302 303 304 304 304 304
311 311 311 311 311 311 311 311 312 311 309 303 304 301 304 306 305 304 300 293 299 304 303 303 304 303 306 306 307 308 305 301 299 300 299 301 298 294 291 291 289 288 288 290 288 284 285 284 289 291 292 292 294 293 292 292 290 288 290 286 286 283 285 288 291 293 295 290 287 287 289 288 290 292 293 293 293 292 292 297 299 301 301 302 302 303 302 302
310 311 311 311 311 311 311 312 311 310 305 301 302 306 305 308 308 308 305 298 296 302 302 302 301 301 303 307 307 307 301 298 297 298 298 299 295 294 291 290 291 290 291 291 288 284 285 284 290 293 293 294 294 293 292 289 287 285 284 285 284 284 287 283 287 292 294 291 290 290 288 287 289 291 293 294 294 293 294 294 297 299 300 301 301 303 303 303
311 311 311 311 311 312 312 312 309 306 302 301 302 302 306 307 305 307 303 294 292 297 302 302 303 302 302 303 307 306 300 298 297 296 301 298 293 293 292 288 288 289 286 289 288 286 286 290 294 294 294 294 293 292 291 288 288 287 287 286 285 287 287 286 285 291 291 292 292 286 284 285 285 289 290 293 294 294 295 294 294 295 300 303 303 302 304 304
310 311 311 311 312 312 312 311 303 304 304 304 303 306 306 306 309 306 301 296 295 297 306 303 306 304 305 307 306 303 298 298 297 298 300 298 293 293 290 291 290 285 286 288 289 288 288 292 294 293 293 293 292 290 289 289 285 284 286 288 288 288 290 289 289 288 280 282 287 289 281 277 282 286 289 292 292 293 292 291 293 294 296 298 299 301 303 304
311 311 311 311 311 311 310 304 303 305 303 302 304 307 306 309 310 309 299 288 285 293 299 295 304 299 306 300 301 299 298 295 297 300 300 299 301 294 295 290 291 287 286 288 287 286 288 291 295 293 291 292 291 290 290 290 283 284 287 290 291 290 289 288 289 286 282 281 285 289 282 274 280 285 288 290 289 291 292 291 294 294 294 296 299 300 301 303
311 311 311 311 311 309 296 297 305 305 300 303 305 308 309 309 311 311 303 281 279 295 294 299 298 297 303 300 299 297 286 288 298 300 299 304 298 301 291 286 291 291 294 289 285 283 293 290 292 293 292 290 288 287 290 290 285 284 288 290 291 290 289 288 287 285 279 285 287 285 282 279 277 281 288 288 289 290 291 293 292 294 294 294 297 299 301 303
310 311 311 311 309 308 298 301 299 299 302 306 307 309 312 312 310 306 290 277 276 296 294 294 297 303 302 301 298 295 294 296 291 295 298 300 299 294 293 287 289 289 291 289 281 285 289 290 292 291 289 287 286 287 291 291 288 286 290 291 291 292 289 288 287 284 283 284 281 278 286 282 276 282 287 289 288 289 290 291 293 294 295 294 295 298 300 302
311 311 311 310 306 309 303 301 300 302 302 305 308 311 317 309 305 296 281 275 290 293 304 295 305 300 296 298 298 294 294 297 292 294 298 299 298 294 290 288 288 288 290 290 282 285 291 292 292 293 289 288 288 290 292 293 290 291 291 292 290 289 288 286 282 284 281 279 275 279 282 279 276 279 282 286 287 287 289 292 293 294 295 295 294 296 298 301
310 311 311 309 305 305 300 302 301 304 309 310 313 315 312 305 296 287 278 275 295 287 296 296 295 292 294 292 290 292 293 293 295 295 296 293 294 296 296 292 290 290 290 289 288 287 290 296 301 294 291 291 291 291 292 293 293 293 291 292 286 283 282 283 280 279 280 275 275 281 282 282 276 278 281 284 286 288 289 290 292 294 295 295 295 295 297 299
310 310 310 309 300 308 307 301 307 312 312 315 314 308 304 296 284 275 273 283 295 292 295 292 292 294 292 291 287 289 292 292 292 295 292 295 292 290 291 290 288 283 281 280 284 286 288 290 294 292 298 293 293 292 291 291 291 291 287 282 284 285 279 278 276 278 275 267 274 278 282 282 276 277 280 285 288 289 290 290 291 293 294 295 295 295 296 299
309 309 310 303 305 308 302 298 304 313 315 312 309 301 298 289 285 280 278 295 285 287 288 286 289 290 290 291 290 289 290 290 291 293 289 288 287 287 286 282 281 280 277 277 282 283 285 286 287 290 299 295 289 290 285 286 284 286 284 283 280 276 271 273 274 273 272 272 278 281 282 281 278 280 285 287 289 290 290 291 292 292 294 295 294 294 295 296
307 308 310 308 310 304 307 307 310 312 311 308 303 295 286 275 277 278 284 288 283 289 287 291 288 288 288 285 285 288 289 288 289 291 292 289 288 286 286 287 285 286 280 279 280 280 280 283 288 289 291 294 290 286 280 284 282 284 284 278 278 274 270 266 267 269 274 277 280 280 282 279 279 283 287 287 290 291 292 292 293 294 294 295 296 295 294 296
308 309 302 308 308 309 311 312 313 312 309 304 297 293 283 279 280 299 289 285 288 291 290 288 287 286 286 285 287 289 284 287 289 289 290 287 287 283 284 286 288 288 286 280 282 277 274 277 283 286 285 291 289 286 285 285 281 283 284 285 282 276 273 269 272 270 273 276 277 282 280 275 277 282 289 290 292 294 294 295 295 295 295 295 297 298 297 295
307 306 304 306 308 312 311 311 309 312 302 298 290 284 278 277 279 282 284 285 287 289 288 288 287 284 283 283 287 289 290 285 289 288 287 285 281 283 284 285 289 287 284 281 281 277 282 278 284 289 291 291 289 291 289 286 284 283 285 285 281 280 278 278 274 276 276 275 276 280 278 276 282 288 291 292 292 293 293 293 294 293 294 295 295 295 296 297
308 305 307 308 314 315 313 315 309 307 300 293 282 280 278 282 285 287 287 290 290 287 286 285 283 279 279 279 284 287 290 288 288 286 283 286 285 286 287 288 289 288 284 280 278 279 280 280 286 288 291 289 291 293 292 289 279 285 286 283 283 286 283 274 275 279 273 273 272 271 278 281 282 286 289 290 292 291 292 292 293 292 293 294 294 294 294 295
304 307 307 309 314 317 317 315 311 304 299 291 281 281 281 290 291 289 293 290 290 289 282 281 281 283 280 280 280 284 287 287 285 285 281 285 283 287 288 289 293 291 289 287 282 282 280 277 284 287 288 292 292 291 290 290 288 283 281 282 286 290 286 281 273 270 267 269 270 275 274 275 276 275 285 289 289 290 290 290 291 292 292 292 292 293 294 295
303 306 311 312 313 310 312 309 306 302 295 289 285 296 292 291 294 292 292 291 291 288 282 281 282 285 280 281 279 284 286 284 284 284 282 284 283 291 288 288 291 292 291 290 285 286 285 280 281 287 288 290 290 290 289 291 290 286 284 289 286 277 280 280 276 270 269 267 266 271 275 274 278 278 283 286 286 287 288 289 290 290 291 291 291 292 293 295
302 301 301 309 310 309 312 308 305 297 290 288 278 287 293 295 296 291 292 292 291 286 284 283 281 284 283 280 280 282 284 281 284 283 280 283 280 290 290 290 289 291 292 290 286 285 283 279 279 285 288 289 287 285 281 283 289 291 288 285 285 281 279 277 277 278 276 268 266 269 275 274 280 279 286 286 287 288 287 288 288 289 290 290 290 291 292 293
302 299 300 309 307 307 308 305 298 294 290 286 282 288 294 293 292 292 292 292 289 287 285 285 285 282 284 283 284 284 283 284 283 281 283 283 284 287 290 291 289 290 291 292 288 289 283 283 274 281 285 288 282 283 281 282 283 286 285 281 281 280 283 280 282 278 277 265 264 266 268 273 277 282 287 288 287 288 288 288 288 289 289 290 290 290 291 292
300 296 297 306 304 304 300 296 292 290 290 289 291 293 291 290 292 291 291 292 290 293 290 287 284 282 282 284 284 285 284 282 283 281 283 283 283 279 289 289 290 289 288 288 287 286 281 279 279 279 281 281 282 286 287 287 286 285 285 282 284 281 281 277 275 278 278 277 271 267 271 275 281 290 290 289 288 289 289 288 289 290 290 289 290 291 291 291
291 286 293 303 303 299 292 286 285 289 287 284 286 290 289 300 290 288 290 291 292 288 291 288 288 287 284 285 284 284 283 281 282 283 284 282 286 284 288 289 289 289 288 284 285 288 285 280 280 278 280 281 283 287 288 288 287 287 285 284 285 281 280 277 271 272 277 278 278 275 270 273 283 287 290 288 288 288 288 289 289 290 290 289 289 290 291 291
289 289 299 304 302 296 288 280 285 283 284 287 291 290 291 290 290 289 289 290 290 290 289 288 288 287 287 287 286 285 284 282 283 282 282 285 285 289 289 290 291 289 286 284 287 286 303 276 275 278 278 280 283 284 286 287 286 285 282 281 280 281 282 279 278 276 276 274 277 274 272 273 283 289 289 289 289 287 287 288 289 290 291 290 289 289 290 291
292 292 296 303 300 296 289 284 282 281 285 289 289 289 290 290 289 287 288 288 289 288 288 288 288 289 287 287 286 285 285 278 283 285 282 284 285 289 290 290 292 289 288 285 285 288 280 279 280 274 270 274 276 276 280 280 283 279 281 282 282 281 281 281 280 278 276 276 278 274 271 273 285 288 288 288 287 287 288 289 288 288 289 289 289 289 290 290
292 292 295 297 297 294 286 284 283 276 283 285 286 286 287 288 289 290 289 287 290 288 287 286 288 288 287 287 286 286 286 284 281 284 286 286 285 290 291 291 291 292 294 297 299 290 282 280 279 273 270 267 264 264 267 270 276 280 281 281 282 283 282 279 275 273 272 274 279 274 270 277 282 284 285 287 286 286 287 287 289 288 288 288 289 290 290 291
288 282 284 287 289 289 289 290 287 285 280 283 280 282 287 285 288 290 291 288 289 290 287 288 287 288 286 285 283 283 284 286 284 282 283 283 285 288 290 290 290 294 301 301 299 289 282 280 279 274 274 273 276 277 277 281 280 278 280 280 281 282 280 279 276 272 271 269 274 276 279 279 281 282 282 284 285 285 287 287 287 288 288 288 288 290 291 291
288 284 281 280 285 286 284 285 287 286 284 287 280 284 284 285 287 289 291 287 289 289 289 287 287 283 282 283 281 282 284 284 285 284 284 284 286 287 290 288 288 296 299 295 296 282 278 276 278 280 278 279 279 279 280 283 280 280 280 280 279 279 280 280 274 274 276 276 273 277 278 279 279 280 282 284 284 283 284 285 286 287 288 289 290 291 294 291
282 285 287 288 283 280 281 281 288 287 288 288 283 286 285 285 286 283 288 289 289 289 285 285 286 286 285 284 283 279 281 280 280 280 284 285 284 285 285 288 286 292 293 288 290 284 281 276 279 281 279 279 280 280 281 281 281 281 281 280 279 279 279 277 273 279 278 274 275 276 277 277 278 280 282 284 284 284 284 286 286 287 288 289 289 290 289 289
288 284 288 290 283 282 284 287 289 288 284 288 284 286 284 284 283 286 287 285 286 285 286 278 282 285 285 285 283 280 281 278 276 281 281 281 282 282 280 284 287 287 287 285 287 283 281 275 278 280 279 278 280 280 281 281 279 280 281 280 280 279 279 280 280 279 280 279 280 280 277 278 281 280 281 284 285 284 285 286 287 289 288 289 288 288 288 288
283 284 283 287 284 283 283 285 287 285 282 288 282 285 286 283 282 285 286 285 279 283 287 282 283 284 285 285 282 280 283 281 282 279 282 282 279 281 281 282 281 284 284 284 285 284 282 275 284 278 276 276 277 280 280 279 279 278 279 279 279 279 280 280 279 278 280 279 278 278 276 276 279 282 283 284 284 285 287 288 288 287 288 289 288 288 288 288
289 289 290 284 280 282 287 284 284 283 278 282 281 285 286 285 283 285 284 287 284 284 286 284 285 284 285 284 284 284 286 284 284 284 284 282 279 282 282 281 284 281 282 282 283 282 282 276 278 277 274 274 276 279 279 279 278 277 276 278 278 278 274 276 277 278 277 276 274 275 274 273 277 281 284 285 286 287 287 287 288 288 288 288 287 288 289 289
290 290 290 285 281 287 282 283 282 279 278 283 286 286 285 285 286 285 279 286 288 289 287 286 285 284 282 282 283 284 286 286 286 287 287 287 285 284 285 285 285 283 280 281 281 280 279 277 275 272 273 270 276 278 279 276 276 277 273 276 279 279 280 278 280 280 280 278 275 271 274 276 281 286 285 286 284 286 286 287 287 288 287 288 288 289 289 289
Wind_Speed
10 10 10 9 9 9 9 9 9 10 10 9 9 9 9 8 9 9 9 9 8 9 9 10 11 12 12 14 14 15 13 6 6 1 1 11 9 10 8 8 5 4 5 0 2 2 3 4 3 5 4 2 1 0 1 1 2 2 1 4 1 5 3 4 3 3 0 3 9 10 2 2 7 2 1 10 10 5 7 7 3 8 8 8 7 12 10 9
10 10 10 9 9 9 10 9 9 9 8 9 9 9 9 8 8 9 8 9 9 9 10 11 12 12 13 13 14 14 10 2 5 6 14 7 11 12 12 11 6 3 5 0 2 1 1 2 2 4 4 1 1 1 1 1 1 3 1 2 6 4 6 3 2 4 1 5 7 7 4 4 6 8 1 8 2 5 9 4 5 9 9 11 11 11 11 9
10 10 10 10 10 10 9 9 9 8 9 9 9 9 9 9 9 8 8 8 10 10 10 12 12 13 13 13 14 11 8 5 3 6 8 7 14 12 12 11 7 6 4 2 3 4 1 0 0 2 2 1 2 2 3 2 1 3 3 2 6 5 4 4 5 8 3 3 7 6 3 1 4 2 1 7 7 4 12 10 5 10 13 12 10 10 10 10
11 10 10 10 9 9 9 9 9 9 9 9 10 9 8 8 8 8 8 8 9 10 10 11 12 12 13 14 12 7 2 2 1 3 4 2 10 13 10 9 6 5 4 1 2 3 1 3 2 2 0 0 3 0 1 4 0 2 2 4 5 4 3 6 6 8 5 0 4 2 3 0 2 0 5 9 11 1 3 10 18 15 16 15 13 12 10 11
11 10 10 10 10 10 9 9 9 9 9 9 8 8 8 8 8 8 8 8 9 9 10 11 12 12 13 14 13 2 2 1 0 2 5 4 5 11 12 9 5 4 6 3 3 2 2 1 2 2 1 2 1 0 3 2 2 1 5 5 6 1 1 9 7 8 5 2 1 3 5 1 0 3 8 15 13 8 12 10 9 21 20 19 15 12 9 10
11 11 10 10 10 9 9 9 9 9 9 9 8 8 9 9 9 8 8 8 9 9 10 11 12 12 13 14 4 2 0 2 2 4 2 3 4 9 10 9 7 5 3 1 1 1 2 2 2 1 1 0 2 3 3 1 0 3 4 4 7 5 5 5 4 2 1 0 1 2 1 1 2 3 3 1 5 5 4 9 12 19 22 22 18 15 12 11
11 11 10 9 9 9 9 9 9 9 9 9 8 8 8 8 8 8 8 9 9 9 9 10 11 12 12 10 0 1 1 5 2 8 6 5 6 8 9 9 9 5 4 1 1 0 1 3 2 1 0 1 4 3 7 3 2 3 5 3 7 4 8 10 7 4 3 5 1 1 2 3 3 8 2 1 3 3 6 7 7 10 11 14 15 12 15 13
11 11 11 10 10 10 9 9 10 10 9 9 9 8 8 8 8 8 8 9 9 9 9 10 10 11 9 4 1 1 1 5 8 3 6 9 9 10 11 5 6 4 4 4 4 3 2 3 2 2 1 2 2 2 2 1 0 4 5 4 5 4 7 9 7 7 5 5 2 4 4 2 4 4 2 3 4 3 7 9 10 10 11 8 10 12 11 10
12 11 11 10 10 10 10 10 10 10 10 9 9 9 9 8 8 8 9 9 9 9 9 9 10 9 5 0 1 2 2 5 5 4 7 8 7 8 9 3 3 5 3 3 3 4 2 3 1 3 3 1 0 2 3 2 6 5 10 4 5 4 5 7 8 10 5 3 1 4 1 1 6 4 2 3 3 1 8 10 11 12 12 11 11 10 10 10
12 11 11 11 11 11 10 10 10 10 10 9 9 9 8 8 8 8 8 8 8 8 8 8 8 8 2 0 1 2 2 3 2 5 7 8 8 7 5 4 5 4 3 2 3 1 3 6 3 2 1 4 2 4 0 4 4 2 3 4 8 9 5 6 8 7 5 3 1 3 3 0 1 2 2 1 1 6 9 10 9 13 13 12 10 9 8 12
12 12 12 11 11 10 10 10 10 10 10 10 9 8 9 8 8 8 8 8 8 8 7 7 6 7 0 0 1 2 4 4 1 4 6 8 9 7 5 5 5 4 3 2 5 8 7 3 1 0 0 3 1 5 1 4 1 5 5 5 6 6 6 0 1 5 1 0 0 5 1 1 3 1 5 4 4 8 13 10 11 9 10 11 10 10 7 8
13 12 11 11 11 11 10 10 10 10 9 9 8 8 8 8 9 8 8 7 7 7 6 6 7 1 1 1 2 6 2 1 1 3 3 7 5 8 8 8 8 6 7 4 5 7 7 4 3 2 2 2 2 2 3 3 1 5 2 4 3 3 2 2 4 3 1 1 2 2 2 1 1 4 3 5 6 8 13 12 12 11 8 8 9 7 7 7
13 13 12 12 12 11 11 10 10 10 10 9 8 8 7 7 8 8 8 7 6 5 5 6 4 1 0 2 8 8 3 1 4 5 2 1 2 2 3 4 8 8 8 5 5 6 7 4 2 1 5 1 2 2 2 2 4 4 1 1 2 4 1 3 2 1 1 1 4 2 3 4 6 5 1 4 8 5 9 11 11 9 7 7 7 6 5 5
14 13 13 12 11 11 10 10 11 10 10 9 8 7 7 6 7 7 8 8 7 6 6 5 0 2 0 4 5 3 5 2 1 2 4 3 1 5 2 4 3 3 1 4 7 4 0 3 5 6 1 3 3 3 4 5 4 2 4 4 1 1 2 3 1 1 3 1 2 2 2 7 7 6 2 5 7 12 10 11 11 9 8 7 6 6 7 5
15 14 13 13 12 12 11 11 11 11 10 10 9 8 6 7 7 7 6 6 7 6 3 3 1 0 1 7 6 7 9 3 3 5 5 5 4 4 6 4 5 7 7 7 3 1 2 4 3 1 3 1 1 2 4 4 4 2 3 3 5 1 3 8 5 4 6 1 2 5 0 9 6 5 4 4 5 7 12 10 10 9 8 7 6 6 6 6
15 14 14 13 12 12 11 11 11 11 10 10 10 10 9 9 8 6 5 5 4 4 1 2 0 1 1 5 1 1 3 1 4 11 5 7 5 6 3 2 3 5 5 5 7 5 4 2 2 3 2 3 2 2 4 7 4 4 2 2 2 1 3 5 1 2 3 1 2 3 5 3 6 6 6 7 10 10 11 11 8 9 8 7 7 6 5 6
15 15 14 13 13 12 11 10 11 11 11 9 10 12 9 8 7 4 3 4 3 1 1 0 0 1 1 3 2 3 2 3 3 2 2 5 8 7 1 3 1 5 2 3 2 2 3 1 2 2 5 1 1 2 1 3 4 2 2 1 1 1 2 1 8 1 1 2 3 2 2 6 4 1 6 6 10 11 9 12 12 10 9 9 7 7 8 8
16 15 14 13 13 12 11 10 10 12 12 9 8 9 3 3 3 4 3 1 1 1 2 3 2 2 6 3 1 2 2 5 2 4 5 3 8 4 2 1 2 3 4 4 5 0 1 1 4 3 3 3 1 2 2 3 1 2 3 4 3 1 1 3 1 3 5 1 5 2 5 6 5 2 2 7 7 8 10 11 13 13 11 9 9 9 10 10
16 15 14 14 13 12 11 10 10 10 11 11 5 6 4 6 2 1 1 1 0 1 1 0 1 1 3 3 5 7 3 6 1 4 3 3 1 2 0 1 2 2 3 3 3 2 2 0 4 2 4 3 2 5 6 6 4 2 3 2 1 2 3 5 4 3 2 3 3 2 9 7 6 4 6 3 3 10 12 6 4 5 4 7 9 10 10 11
17 16 15 14 13 12 11 10 9 9 8 5 2 2 1 1 1 0 0 0 3 5 5 4 3 3 7 9 5 3 5 1 2 3 1 1 6 3 3 1 1 4 2 1 4 1 0 1 4 5 7 7 5 6 5 4 4 1 3 2 0 0 4 4 4 5 1 2 1 3 4 3 3 4 6 4 2 7 6 8 7 5 6 8 8 10 11 12
17 16 15 14 13 12 11 10 8 6 5 1 1 1 1 0 2 3 4 7 5 5 5 5 10 7 7 4 4 4 6 4 1 1 1 2 4 6 2 2 1 4 1 2 2 2 1 1 6 8 10 8 5 3 1 2 2 2 4 1 2 0 1 2 1 4 6 2 1 2 1 1 2 5 5 5 2 3 9 9 10 11 11 11 13 13 13 7
16 16 15 14 13 12 10 9 7 5 3 0 0 1 1 2 1 1 1 5 5 9 9 8 2 6 4 7 7 1 3 1 8 7 3 3 1 3 2 2 2 5 2 1 2 3 1 4 9 9 4 1 1 1 2 4 3 2 1 1 1 3 3 7 3 4 2 2 3 2 1 3 4 5 7 3 2 3 8 12 12 12 11 9 9 8 5 5
16 15 14 13 12 11 9 8 4 1 1 0 1 0 1 3 2 1 1 2 7 2 3 3 3 5 8 4 3 7 2 4 5 4 3 4 1 4 3 1 0 0 0 1 2 1 4 7 10 2 5 2 0 1 3 3 3 3 2 1 3 3 2 3 5 3 5 2 1 0 2 6 7 4 6 6 3 4 3 7 9 11 12 11 11 12 12 10
16 14 13 12 12 9 8 5 4 2 1 2 1 2 4 4 3 3 1 3 3 7 4 5 4 3 6 3 3 6 5 3 4 5 2 5 5 2 2 3 0 0 3 2 4 5 8 10 2 3 4 4 2 1 3 2 3 1 2 2 2 1 3 5 3 4 3 1 3 2 5 7 5 2 2 3 3 2 4 2 5 7 10 13 9 6 8 13
16 14 12 12 11 9 6 3 1 2 2 1 3 5 4 3 1 2 1 3 2 4 2 0 3 3 6 1 4 4 3 1 5 2 2 6 3 2 2 2 1 3 4 2 3 1 9 8 0 4 2 2 4 2 5 6 3 2 4 6 5 2 2 3 3 2 4 3 3 2 3 3 4 5 7 7 3 5 2 3 7 6 9 7 9 13 10 8
15 13 11 10 10 8 5 1 0 0 0 1 1 2 4 4 3 2 3 3 2 4 3 2 1 2 1 1 3 2 4 1 5 5 4 6 6 4 1 0 2 4 3 3 4 3 5 3 0 3 4 2 4 5 3 4 3 1 5 7 5 3 2 3 0 3 0 2 3 2 5 4 6 3 3 5 4 7 6 4 8 8 3 9 12 12 12 14
14 12 10 9 8 7 0 1 0 1 1 2 3 3 4 4 0 1 2 3 1 1 1 1 1 1 2 1 4 3 1 3 3 0 2 2 6 1 3 4 2 1 0 2 4 3 1 5 5 2 0 2 2 4 3 7 6 3 3 5 4 3 2 3 4 4 2 2 3 4 3 2 3 5 5 4 5 7 10 10 7 9 10 7 10 12 13 14
14 11 9 8 6 4 0 0 3 0 1 4 3 5 5 3 1 3 3 1 1 2 0 1 1 1 0 1 5 2 3 1 2 2 1 2 4 2 1 4 6 6 2 1 5 5 1 4 1 2 0 1 5 6 4 6 4 4 1 6 3 3 3 5 5 4 1 1 5 4 1 0 2 7 6 3 4 6 8 8 10 10 10 7 10 12 14 15
13 10 8 5 4 2 1 1 1 1 2 3 5 5 5 2 4 5 3 1 1 0 1 0 3 0 3 1 1 1 2 0 1 2 1 2 2 3 0 5 3 2 1 3 7 2 2 6 4 4 4 4 5 3 8 9 1 5 3 4 5 5 5 4 4 5 1 2 4 3 1 3 4 6 6 2 1 6 7 8 9 11 11 10 6 10 11 12
12 9 7 3 0 0 1 1 3 3 3 4 5 6 1 3 2 1 1 1 0 1 0 2 1 2 0 1 2 1 3 2 3 1 2 2 4 2 0 3 3 1 2 3 1 8 4 4 6 4 4 6 5 3 6 9 6 3 4 1 2 7 3 3 5 3 3 1 5 8 3 3 2 4 5 3 3 4 2 6 8 9 10 7 5 8 10 12
10 8 5 2 0 1 0 4 3 1 3 5 6 4 2 7 2 3 1 1 0 2 2 3 1 2 0 1 2 2 1 1 1 2 1 0 2 2 1 2 6 4 3 1 3 5 5 1 1 3 1 2 2 1 2 1 1 2 1 2 2 3 6 2 3 4 1 5 6 3 3 5 4 4 5 8 6 2 3 8 10 13 12 11 9 1 7 11
11 9 5 5 2 0 1 3 2 2 5 5 4 4 3 2 3 0 1 4 1 3 1 2 2 1 3 1 2 3 2 1 1 2 5 4 3 3 3 6 2 0 3 1 3 4 2 4 2 6 3 7 2 0 3 4 4 6 6 6 2 2 3 3 2 3 4 4 2 2 5 1 3 7 4 6 7 7 4 5 7 6 10 12 11 2 3 4
12 7 7 6 2 0 4 5 3 4 4 5 4 4 2 3 0 2 1 2 1 1 2 1 3 1 1 3 4 5 3 1 4 2 2 1 5 4 3 3 3 2 4 2 1 3 5 3 4 5 4 0 5 4 2 1 1 5 5 4 4 0 1 2 5 1 4 6 2 2 2 1 4 4 2 3 5 4 5 4 1 6 10 11 12 10 3 9
13 3 2 5 7 6 5 1 1 3 4 4 1 4 6 2 1 3 1 1 1 1 2 1 4 3 2 4 1 1 4 1 4 3 1 1 1 2 3 2 4 1 0 1 1 1 1 4 3 1 1 2 2 2 3 2 2 6 0 9 8 7 4 4 3 4 5 6 3 3 1 3 2 1 5 5 3 4 4 0 3 8 8 10 12 13 12 7
16 2 3 2 2 6 9 3 1 2 2 4 8 4 2 2 2 1 1 2 2 1 1 3 1 2 3 3 1 2 1 1 3 3 1 1 2 1 2 4 1 6 2 2 2 2 3 5 4 4 2 1 3 0 4 4 1 1 2 5 6 6 6 5 5 3 2 1 1 0 2 3 5 3 4 4 2 3 4 10 13 12 11 15 15 13 11 10
5 0 1 2 0 3 2 3 4 3 1 7 3 2 1 2 1 1 0 2 1 1 4 3 3 4 2 2 1 4 5 1 4 3 3 1 2 0 1 1 1 4 5 4 3 2 2 2 1 7 3 4 1 0 2 2 1 1 2 2 4 1 6 3 2 1 4 4 4 0 5 3 5 3 4 5 6 8 8 10 12 10 10 15 12 11 10 9
3 4 0 2 1 3 1 4 4 4 6 6 4 1 3 2 6 2 2 0 1 0 2 3 3 1 2 3 2 6 4 3 3 4 3 2 2 1 3 2 1 1 3 3 3 4 4 4 2 3 1 1 1 3 4 4 3 5 1 4 2 1 3 3 3 2 3 2 5 1 3 3 2 2 4 5 8 6 7 7 7 9 11 13 9 9 9 9
2 1 0 3 3 4 3 3 3 6 4 3 1 4 1 0 0 1 1 1 1 2 2 2 2 3 1 1 4 2 5 4 6 4 3 0 1 1 1 2 2 4 4 1 3 2 3 3 3 1 2 6 5 2 2 2 3 6 2 1 1 2 3 3 3 1 1 2 3 2 1 2 4 4 0 1 3 2 4 5 10 10 10 8 8 8 9 10
1 2 1 2 4 4 1 4 7 3 2 3 1 2 1 4 2 4 4 2 1 2 1 2 1 1 2 0 3 2 1 2 2 1 2 2 1 1 2 2 3 5 6 4 2 1 3 2 4 3 0 2 3 2 3 4 6 1 3 3 0 4 2 1 3 2 5 3 1 5 2 5 5 5 11 5 4 3 3 7 5 5 4 5 4 5 6 8
4 2 1 1 4 4 1 3 3 4 3 0 2 2 2 1 2 4 8 4 2 1 2 0 1 1 0 3 1 0 2 1 0 2 1 2 1 4 6 6 2 6 4 4 2 0 1 1 2 2 4 1 1 1 4 2 1 5 6 2 3 1 1 2 1 1 3 3 4 3 3 4 5 5 7 7 5 4 4 5 4 4 4 2 2 4 4 5
1 2 1 3 8 6 2 5 3 1 0 1 1 1 2 1 3 3 6 6 3 1 0 2 2 3 2 0 2 1 0 0 0 0 1 2 1 2 3 4 4 3 3 4 4 0 0 1 4 3 5 1 2 2 3 4 6 6 3 2 2 0 3 2 8 2 1 1 3 3 6 6 7 0 2 7 4 4 3 5 3 2 3 3 2 1 2 5
3 2 2 4 8 3 3 3 1 0 1 1 1 1 2 3 0 3 2 3 2 2 2 2 1 1 1 1 3 0 1 1 1 0 1 1 1 1 4 7 4 2 2 1 2 1 1 2 2 2 4 4 3 4 3 3 3 2 6 2 3 2 4 3 2 4 2 2 4 3 1 3 2 3 1 4 4 3 3 3 3 1 2 4 3 2 2 4
3 2 5 5 8 1 4 3 2 3 1 2 4 2 1 1 1 2 1 2 3 1 1 1 1 0 1 1 0 1 2 1 2 3 2 0 1 1 6 9 8 5 3 0 3 0 4 0 1 3 6 6 6 4 0 1 4 4 3 2 3 4 3 6 4 3 2 1 0 1 1 4 3 4 1 1 0 2 2 1 3 1 1 2 4 5 5 4
2 2 4 2 6 4 5 1 1 1 2 4 1 2 3 2 2 4 1 3 1 3 0 1 2 1 1 1 1 0 1 1 2 1 1 1 1 2 10 10 9 4 4 1 1 2 1 2 2 1 2 6 6 5 2 2 4 2 2 1 2 2 2 1 3 1 1 4 6 5 6 1 2 3 2 1 2 3 2 1 1 3 1 2 3 3 3 4
3 2 1 7 8 7 3 1 1 1 1 3 3 5 4 2 2 1 1 3 1 2 0 1 2 1 1 1 0 0 0 3 2 2 0 0 2 3 10 11 9 4 2 1 0 1 0 2 1 2 4 4 4 2 4 3 3 1 0 1 0 3 0 3 1 1 1 3 2 2 2 6 4 6 5 6 4 4 3 3 2 1 1 1 2 2 4 4
2 1 5 6 8 6 4 2 4 1 0 2 3 4 1 1 3 5 2 1 2 1 1 2 4 3 2 3 2 3 3 3 2 2 4 4 3 1 3 9 6 5 7 12 10 2 0 1 1 3 4 7 7 6 5 1 1 3 1 3 0 0 1 3 3 2 4 2 3 6 2 2 7 3 3 3 3 3 1 3 3 2 1 0 1 0 3 5
0 2 2 5 6 6 2 4 3 3 1 0 0 1 2 1 2 3 1 0 4 2 2 4 3 3 2 3 0 0 0 1 4 2 1 1 2 2 8 2 4 10 12 7 10 3 2 1 1 1 3 6 6 6 4 3 4 2 2 2 4 4 4 4 4 5 4 0 9 3 4 5 8 4 4 3 4 3 2 1 0 0 0 1 1 0 2 4
1 0 2 0 0 3 4 4 6 2 3 0 3 1 2 4 3 1 4 1 1 5 2 1 8 3 1 0 1 0 1 1 2 1 1 1 2 5 5 5 3 7 9 3 4 3 1 0 3 0 4 4 4 6 5 3 3 4 4 3 4 5 2 5 5 7 6 5 9 4 6 5 4 6 3 3 5 2 4 3 3 2 0 1 4 6 7 5
3 1 0 2 0 2 1 4 3 2 3 2 1 4 3 4 5 2 1 3 3 3 2 0 1 1 1 2 1 1 0 1 1 1 1 2 1 2 4 4 1 7 7 5 4 1 1 1 1 2 3 3 5 3 3 3 3 3 4 5 5 4 7 7 7 5 10 8 10 8 5 10 6 3 5 7 2 2 3 2 2 4 4 4 5 6 5 5
3 2 3 4 1 1 3 1 0 2 4 5 1 3 1 3 4 7 4 1 1 1 2 3 1 1 1 2 2 2 1 2 1 1 1 1 5 0 2 4 3 2 4 2 1 3 2 3 4 2 3 5 5 6 3 1 1 4 2 2 3 6 7 7 3 1 3 5 6 6 6 8 7 6 6 4 4 0 2 6 4 3 4 5 5 5 4 4
2 1 0 1 3 3 2 2 2 2 1 4 4 3 2 4 4 4 3 1 1 0 0 1 2 1 1 3 3 2 4 3 4 4 3 3 1 3 1 4 2 4 4 2 2 3 3 4 2 2 4 7 5 3 5 4 3 3 4 4 4 5 5 3 4 6 5 6 4 1 4 6 4 2 2 2 4 5 2 2 4 4 4 4 3 4 5 5
2 2 2 1 1 2 2 2 2 2 2 1 2 3 1 3 5 4 0 2 1 1 2 2 2 1 2 3 2 2 5 6 6 7 6 7 5 4 4 4 1 1 1 1 1 1 2 1 1 0 4 5 7 4 6 3 6 10 6 7 11 7 7 1 1 3 7 6 4 4 8 5 4 1 3 2 2 1 1 1 3 4 1 1 1 2 3 4
Wind_Direction
329 325 324 321 314 311 307 314 318 325 332 323 321 318 318 322 321 315 313 315 312 312 313 317 319 319 319 322 325 327 336 321 325 4 258 240 192 212 179 217 103 118 165 135 360 5 335 11 22 335 22 36 288 14 252 134 166 81 128 121 264 218 236 218 197 209 58 322 302 323 0 204 108 90 80 79 46 61 75 73 47 40 58 98 113 118 119 123
328 326 326 322 317 315 320 315 314 317 313 313 309 313 319 320 321 318 312 313 318 317 320 321 317 317 320 321 324 329 337 297 288 267 235 219 189 207 208 225 221 144 111 283 195 208 46 355 17 36 32 6 323 259 348 242 96 123 116 100 211 205 237 165 215 247 318 280 289 284 292 294 145 125 194 100 95 108 77 43 83 78 79 98 107 119 123 128
332 330 326 325 322 323 315 314 311 309 310 311 311 319 324 319 321 322 319 312 312 316 317 315 317 319 318 321 321 334 345 316 277 271 262 243 204 199 207 215 218 157 171 182 206 152 158 194 123 50 2 336 328 239 14 269 155 241 128 231 243 213 247 226 232 264 202 240 314 318 49 68 187 103 108 128 135 122 133 134 93 116 129 134 134 132 136 138
335 330 326 321 323 319 316 313 313 316 316 316 318 318 315 311 308 308 314 312 310 313 316 314 317 319 318 317 320 333 300 290 295 253 262 268 190 202 200 202 194 189 168 214 159 143 129 84 73 87 15 58 293 207 321 269 109 274 108 194 233 220 239 267 225 239 249 143 291 323 89 34 311 298 117 135 94 45 246 179 153 159 151 152 155 151 151 147
334 332 330 328 324 324 324 320 317 312 309 307 308 307 303 304 305 314 315 310 311 313 315 318 318 316 319 319 319 1 340 43 272 239 255 334 175 193 204 199 182 146 163 129 124 79 89 104 76 42 80 268 317 359 245 263 192 98 211 201 222 312 265 264 267 279 271 178 255 59 94 189 24 46 147 152 148 192 196 209 165 152 155 152 157 162 149 150
334 335 332 327 325 322 320 319 315 314 311 313 311 311 311 312 312 310 304 302 308 312 315 316 318 321 320 321 326 136 61 73 287 272 351 8 172 176 184 180 130 121 161 19 109 59 115 20 85 29 12 98 236 165 266 212 146 239 302 233 236 225 241 265 265 282 34 115 181 92 244 52 134 155 200 337 192 215 171 160 167 153 164 164 152 149 154 158
333 329 329 330 327 325 323 319 318 314 311 311 306 302 304 303 301 299 299 305 307 311 312 315 319 322 330 329 129 58 121 264 303 256 67 76 98 129 131 121 113 116 129 126 86 106 88 102 86 204 40 305 272 196 253 227 187 173 245 259 281 178 232 262 280 322 342 91 297 152 133 85 139 150 223 244 270 249 148 160 162 150 131 136 147 160 158 157
330 330 330 329 327 325 322 320 318 316 310 309 307 303 298 293 297 304 299 297 303 305 313 318 320 321 347 352 5 336 40 256 248 264 110 89 85 101 102 83 107 108 130 175 148 147 130 123 176 180 176 169 225 161 279 40 253 208 267 262 261 252 242 263 261 270 259 252 263 66 80 179 165 159 87 284 300 175 124 118 122 131 127 127 141 152 157 155
329 327 327 326 326 328 326 322 319 315 311 307 302 301 297 300 300 297 295 294 296 304 312 316 320 323 336 301 99 7 280 236 226 146 119 97 98 103 119 114 123 129 144 117 150 178 159 255 171 197 283 326 263 280 277 267 312 213 229 247 274 258 265 248 266 258 219 237 165 72 42 312 150 119 50 274 323 135 109 109 125 131 138 149 159 162 158 156
329 328 326 327 329 327 325 321 319 316 311 306 303 297 295 289 288 286 288 293 293 300 305 316 322 335 4 94 30 48 266 253 15 137 118 115 102 103 81 114 136 128 119 181 127 124 176 214 144 165 165 276 238 243 77 123 239 177 243 244 259 260 245 267 233 246 213 225 209 127 137 135 307 65 270 312 41 126 105 118 138 145 151 159 163 167 169 159
328 327 325 326 325 325 322 322 320 318 314 309 303 299 292 287 283 281 283 290 294 294 303 307 327 356 24 47 94 235 262 46 12 118 125 123 110 126 188 150 156 141 144 181 189 197 223 193 133 324 101 227 332 283 160 231 215 280 258 300 288 275 224 272 243 258 164 233 93 119 162 188 318 79 216 189 153 148 132 143 150 154 153 162 168 171 173 166
327 327 326 324 324 323 325 321 317 317 315 308 302 297 292 287 279 277 276 280 289 296 299 307 333 318 279 84 147 222 311 95 99 105 119 135 156 195 180 174 168 168 167 199 231 223 212 192 111 88 234 32 300 297 273 242 263 276 311 302 305 348 168 235 180 236 149 267 164 133 49 349 339 214 256 157 142 155 146 153 160 162 160 163 171 169 173 165
329 328 324 323 322 324 320 316 316 314 316 310 305 299 288 277 275 272 272 273 271 282 296 309 311 272 340 330 229 234 282 200 117 137 155 236 323 281 211 194 184 181 181 181 234 230 208 174 132 171 237 217 226 268 280 11 295 342 32 179 347 5 344 235 339 44 152 268 171 129 280 271 266 266 39 150 142 143 148 159 167 164 159 169 172 167 154 148
326 324 323 323 323 320 317 315 312 311 309 310 303 297 291 280 269 263 258 257 267 274 288 306 342 344 110 243 272 243 248 166 145 130 221 156 339 293 158 216 213 217 263 222 259 266 144 135 171 220 192 190 268 282 9 331 20 306 272 63 98 48 275 312 39 341 168 120 214 88 196 279 269 281 238 175 159 152 169 175 173 165 169 168 171 170 168 171
326 327 325 323 320 318 317 313 310 309 306 301 298 288 272 271 262 257 258 269 262 260 295 352 47 46 19 268 260 270 253 84 162 229 177 161 195 318 277 183 202 202 203 215 243 256 162 151 172 244 253 264 357 27 349 351 350 354 26 297 331 89 281 299 295 188 195 287 65 86 67 248 256 264 226 183 163 169 171 184 177 177 174 169 170 168 164 168
327 325 321 320 320 317 315 313 308 307 303 296 292 290 279 263 251 240 239 245 259 259 27 357 272 144 96 311 260 260 116 131 249 220 217 165 167 212 230 164 198 193 191 257 230 260 279 199 235 214 279 354 52 84 30 19 337 351 69 274 306 30 267 352 31 285 314 23 333 145 220 325 304 226 197 187 174 180 178 185 190 187 179 166 173 169 155 155
325 322 322 320 319 318 315 312 309 304 300 295 292 283 277 264 248 231 243 236 253 211 216 88 150 175 6 235 292 8 296 262 218 64 171 205 170 203 345 347 318 331 346 297 190 230 320 301 312 21 35 132 129 90 353 21 316 317 15 103 225 2 329 309 305 16 242 180 241 270 185 234 246 300 181 200 191 180 188 190 192 190 183 180 168 165 169 176
324 323 321 319 317 317 314 310 308 303 306 310 297 270 240 211 175 93 26 274 236 211 274 233 231 340 290 329 358 308 300 283 276 203 180 200 185 185 214 298 313 358 12 356 357 81 297 261 37 204 2 347 30 47 115 239 193 283 326 15 339 329 172 231 357 274 12 306 207 233 239 259 290 293 156 202 197 190 198 199 197 193 184 173 175 177 179 184
325 323 319 318 316 314 313 311 306 304 312 325 335 83 126 111 113 255 167 163 135 351 22 311 102 351 170 253 292 287 277 229 353 109 234 146 188 149 130 178 17 329 312 35 282 50 344 83 23 18 294 319 275 153 164 217 164 211 176 179 174 40 305 327 253 276 360 305 280 191 214 242 260 310 323 62 219 192 211 210 233 213 198 183 182 184 184 192
325 321 319 317 316 312 311 311 304 307 324 338 21 57 82 15 6 345 286 315 214 218 242 210 197 305 309 286 273 260 279 335 197 234 38 178 105 159 225 222 340 51 96 207 305 2 130 151 215 220 226 234 244 195 195 215 176 85 90 114 155 74 288 281 287 267 93 96 330 261 261 29 294 271 276 262 180 187 189 201 201 210 195 195 197 196 194 197
322 323 319 317 313 314 309 310 311 304 310 315 273 115 33 159 50 313 300 239 223 241 232 229 191 211 238 295 306 30 23 317 50 307 249 109 105 119 256 101 32 279 299 205 190 288 73 348 268 227 228 220 234 214 165 85 64 157 115 86 343 175 287 255 263 318 338 143 290 311 201 318 249 283 275 306 10 137 177 190 201 207 200 200 198 198 200 189
324 321 320 315 313 310 310 306 313 320 54 168 310 70 210 205 206 215 91 319 305 223 222 241 252 270 272 252 263 119 105 280 321 288 285 160 160 150 285 117 159 216 310 315 15 19 12 250 254 239 218 134 139 97 147 136 126 54 220 165 11 298 251 289 288 317 309 87 275 330 75 272 277 275 289 288 234 227 173 182 204 197 206 210 210 207 164 154
324 323 317 315 309 306 308 309 309 337 306 70 40 10 238 235 345 273 144 277 273 262 201 204 233 251 279 252 214 123 128 206 251 291 214 116 24 192 150 105 56 315 315 60 215 287 305 276 250 261 132 126 19 88 115 68 65 109 67 57 248 239 43 300 291 348 350 81 287 265 27 294 311 292 275 277 267 278 191 195 193 192 203 209 214 197 183 183
324 322 318 311 306 306 305 318 93 110 203 199 215 217 256 305 317 21 50 243 295 309 213 215 168 204 234 252 209 139 150 240 137 273 245 129 152 189 98 144 95 119 256 174 168 176 221 245 183 99 122 162 201 196 160 176 226 305 156 151 244 207 230 163 247 321 312 348 76 77 19 333 342 342 325 325 338 348 306 140 187 227 218 209 206 194 201 189
322 321 318 310 304 310 312 302 30 244 163 124 256 245 283 290 334 131 100 334 9 288 253 321 186 237 234 40 92 137 227 306 212 216 185 125 127 68 227 194 118 247 226 127 102 286 286 275 105 274 221 162 181 230 229 155 234 329 242 186 197 196 229 290 328 31 23 335 346 77 351 299 292 295 262 284 351 316 325 339 280 226 203 211 198 205 194 199
321 320 319 313 311 316 306 338 272 203 69 275 224 307 321 318 14 137 97 75 319 265 345 219 129 285 94 236 138 147 71 244 230 225 172 196 151 146 63 29 145 245 238 153 186 197 217 289 322 248 233 182 175 208 232 155 176 96 270 193 208 179 132 137 26 82 12 190 286 27 172 260 327 315 287 292 332 301 298 303 280 286 235 185 208 201 189 189
319 321 317 320 319 317 298 24 233 133 27 308 283 313 313 295 51 151 49 354 33 272 170 236 79 252 88 248 129 77 32 265 297 207 106 203 172 341 146 252 355 350 219 137 40 291 347 311 10 38 106 155 153 233 239 146 122 229 240 141 135 118 154 189 157 146 206 254 299 37 106 178 298 293 263 335 330 292 306 298 274 265 264 216 211 203 195 191
316 315 314 321 332 335 138 326 11 72 229 239 323 326 317 306 102 35 79 65 271 294 301 285 223 11 104 305 132 154 202 226 30 287 160 230 99 358 127 209 187 206 196 86 235 257 127 327 349 320 85 120 197 210 188 147 141 215 195 167 164 198 189 138 132 168 207 130 273 326 333 343 265 266 309 354 326 296 287 277 284 284 275 242 220 210 198 191
317 311 306 321 354 90 47 110 121 247 242 298 315 307 323 58 95 118 115 106 249 306 141 61 285 9 317 350 145 321 344 315 154 258 359 33 55 139 121 243 188 189 356 148 201 277 271 198 231 163 139 229 236 226 162 158 158 276 151 104 76 72 74 119 116 128 317 76 265 261 196 205 287 280 327 334 256 281 261 276 282 276 276 285 225 215 202 189
310 306 297 294 342 213 340 24 214 244 340 326 324 315 48 60 34 44 355 135 306 353 298 249 59 265 346 86 313 344 239 305 213 325 51 137 308 23 267 136 132 104 207 11 178 216 253 314 169 133 197 210 196 231 170 185 183 126 102 87 13 41 29 22 73 100 68 237 251 236 224 163 280 264 228 181 230 205 303 302 285 295 311 303 259 203 190 184
311 299 280 205 111 190 30 352 267 277 317 345 326 10 77 40 115 100 111 228 29 280 354 5 285 355 59 193 297 308 281 293 297 164 245 4 325 37 355 307 40 52 30 358 291 326 339 334 142 247 141 100 161 111 34 41 36 122 74 113 41 312 18 30 336 43 177 274 259 260 200 157 165 292 282 247 287 293 245 271 294 317 327 338 330 193 197 187
319 300 242 173 242 82 151 254 240 6 359 337 33 49 75 264 11 73 235 311 80 289 56 288 304 340 312 240 123 307 232 340 271 169 185 192 208 211 204 181 173 11 338 297 277 350 306 238 259 314 247 162 97 87 300 27 15 81 78 46 105 250 40 272 7 276 216 208 254 176 134 53 233 223 256 304 274 281 254 244 287 313 3 5 352 7 78 343
327 304 225 214 236 238 236 244 357 352 360 23 56 48 58 95 135 270 315 328 251 143 296 186 255 16 316 54 0 310 328 278 305 314 176 336 183 268 246 190 187 166 251 254 269 24 281 294 340 300 334 92 120 165 283 356 353 118 148 134 99 158 37 241 275 213 305 290 256 204 246 241 242 301 271 244 292 288 302 312 290 53 40 28 31 10 33 129
326 305 175 204 199 219 244 217 41 17 12 38 70 30 44 60 252 226 288 253 279 335 332 325 320 11 57 90 324 355 13 285 25 295 112 274 135 262 320 314 155 268 109 147 217 201 22 343 308 140 245 297 81 137 174 195 174 223 118 149 182 144 167 241 205 229 228 220 285 288 85 242 94 218 300 269 294 10 39 351 59 50 45 51 38 41 36 4
315 266 202 293 248 253 239 248 194 127 78 61 50 82 123 247 224 208 257 313 292 340 278 345 332 42 340 22 299 30 114 289 347 333 42 100 270 157 229 275 310 101 150 127 267 78 223 205 257 225 256 51 111 224 137 127 127 258 157 75 88 228 143 215 204 166 232 291 345 221 209 191 117 246 265 286 265 53 54 53 47 37 40 48 36 29 29 39
343 282 155 299 234 273 158 169 128 89 80 51 76 48 178 192 348 165 26 204 337 359 300 7 69 51 310 314 313 23 310 74 325 50 331 56 220 196 244 234 338 185 138 172 202 188 9 293 275 326 4 74 351 174 284 109 175 252 117 201 219 176 110 79 30 29 111 42 253 197 330 302 294 344 343 327 57 18 41 55 55 43 40 50 40 22 27 29
22 338 11 304 283 273 208 135 121 81 62 87 89 303 208 277 202 180 260 111 237 166 57 49 317 55 340 320 295 343 326 39 341 64 312 323 360 288 317 307 259 318 205 134 303 183 145 239 289 116 331 281 66 93 67 3 136 80 84 251 268 113 115 140 217 339 59 162 260 37 204 279 65 218 307 350 59 5 30 42 59 51 44 49 35 29 19 25
3 352 267 325 267 320 79 86 77 49 77 80 89 245 218 43 182 148 296 20 352 35 84 97 276 96 295 23 316 327 314 66 297 33 300 304 268 247 339 310 309 66 313 102 150 291 112 283 298 254 164 271 355 84 14 344 25 135 188 224 88 291 293 320 86 325 275 267 269 307 249 256 195 233 267 242 95 47 25 38 57 46 43 46 34 21 16 23
14 67 28 312 315 325 106 91 68 70 59 50 271 31 271 236 276 17 321 261 135 115 86 231 156 304 137 148 231 320 343 32 308 8 33 296 49 265 75 151 325 355 6 103 55 318 43 199 297 308 111 318 349 60 231 297 325 32 66 21 16 102 171 72 204 198 130 250 66 289 42 242 214 211 173 181 184 154 99 56 69 80 81 64 52 26 25 19
19 36 356 271 323 337 308 70 61 44 73 253 219 222 232 288 329 340 349 35 306 89 239 162 203 267 291 224 141 339 304 114 68 271 106 271 335 318 38 353 9 329 16 24 128 7 289 80 231 279 304 325 319 346 171 162 70 343 22 340 1 24 214 110 79 144 202 184 185 203 298 281 264 215 158 161 176 171 126 116 121 118 118 119 61 46 34 33
329 97 265 286 345 335 49 45 51 56 151 264 146 233 335 334 325 318 325 348 332 244 186 183 152 170 215 83 313 248 8 228 203 135 197 310 106 313 38 30 314 338 357 9 56 30 56 74 215 310 358 328 243 242 174 171 167 156 188 251 220 165 304 291 270 21 88 131 237 130 241 274 273 93 176 144 200 174 168 128 120 92 92 105 110 68 75 59
64 24 270 303 344 19 75 43 360 267 89 99 332 299 309 320 211 290 329 323 32 316 36 111 234 146 150 200 191 174 126 315 253 67 271 158 307 136 307 354 8 278 54 298 242 255 147 157 99 222 208 227 230 253 265 235 148 179 138 215 125 111 106 113 195 275 3 250 115 148 118 279 248 281 262 176 174 197 209 141 113 75 37 28 34 87 98 69
47 224 257 333 343 61 62 61 301 31 34 234 297 289 303 310 148 291 353 357 355 79 353 47 214 69 262 139 203 123 136 242 198 229 209 215 151 30 286 349 357 20 88 349 352 304 94 65 42 301 307 296 312 294 126 328 113 66 26 48 78 114 151 168 175 181 165 302 58 356 218 244 297 338 351 325 286 283 282 251 150 155 343 3 13 26 50 61
241 255 319 307 7 74 79 233 334 328 285 321 26 259 282 240 13 351 19 305 68 328 328 271 346 168 190 70 110 214 182 357 273 194 340 264 141 175 6 3 0 17 14 264 59 277 19 299 124 3 2 338 340 342 11 334 54 81 130 2 98 98 64 114 93 54 164 235 178 135 232 245 260 334 304 321 332 338 345 334 145 104 347 360 21 40 31 47
292 295 263 305 350 50 114 185 135 179 310 324 335 327 341 346 271 277 263 283 249 202 72 303 209 237 24 9 135 193 204 162 262 309 168 78 288 6 3 352 340 22 342 261 278 164 239 237 113 237 235 264 283 295 266 277 262 214 127 89 341 62 295 9 300 9 126 281 116 174 249 259 281 315 325 318 327 319 294 298 320 6 6 16 50 40 38 50
18 339 306 341 8 19 59 44 89 89 74 339 10 272 220 291 322 297 281 285 9 308 57 334 353 57 48 26 21 14 4 358 70 262 40 331 326 347 7 328 20 10 359 31 15 58 135 110 121 150 160 198 214 221 248 119 15 288 249 123 232 355 49 120 104 118 209 237 255 233 177 278 278 265 266 263 248 237 250 299 333 355 6 143 197 318 44 46
160 62 353 330 342 37 55 24 41 30 27 233 340 291 317 271 267 310 312 109 4 38 61 58 2 42 328 59 3 58 244 323 350 74 4 336 271 264 310 305 337 20 18 26 356 79 59 6 280 146 190 214 208 209 246 162 236 237 260 242 183 189 179 149 158 235 187 301 273 251 202 190 252 234 256 304 292 260 265 327 301 159 333 357 335 144 55 35
61 278 92 204 135 281 26 325 27 337 305 229 239 355 285 338 345 319 324 46 55 20 80 321 40 53 352 258 101 85 342 359 16 80 328 246 333 321 351 348 67 355 32 14 3 78 115 234 275 345 272 258 221 233 256 267 213 221 221 200 179 226 188 186 224 210 147 186 234 245 178 215 233 205 229 250 257 272 313 327 297 255 239 354 27 31 25 17
114 296 147 324 151 253 185 276 323 343 352 348 272 33 355 355 324 255 236 320 33 342 66 97 343 346 16 28 117 169 99 44 315 308 167 327 45 334 357 338 330 16 34 11 13 143 73 269 248 216 278 315 293 265 269 221 267 247 241 232 222 176 218 215 229 206 182 216 221 234 207 238 238 214 237 253 275 244 275 299 337 31 353 358 22 28 17 5
7 29 320 360 72 286 285 349 158 50 66 343 51 329 6 15 341 336 336 50 5 310 11 95 242 269 171 93 117 113 205 168 192 261 263 89 340 83 274 203 272 331 45 10 333 336 94 271 15 22 14 292 287 317 326 291 215 272 272 241 205 202 223 230 235 249 206 273 276 267 265 272 268 212 239 294 319 251 46 23 356 311 345 1 14 6 0 2
294 224 272 13 358 299 329 9 17 56 63 346 57 309 14 351 344 315 267 328 140 194 7 208 237 340 51 75 78 156 204 177 170 191 197 147 209 229 134 288 152 331 352 10 21 315 59 275 46 49 332 289 295 338 301 328 319 239 235 220 208 205 224 231 208 209 168 222 237 279 297 266 272 271 246 319 21 53 43 326 338 323 318 8 15 358 358 347
322 295 35 114 277 342 31 325 353 57 26 301 356 310 340 310 300 330 20 341 87 125 177 190 233 86 328 32 351 234 229 188 198 211 196 208 195 215 192 219 210 197 258 206 216 199 185 150 328 299 279 254 259 247 262 319 349 288 260 195 202 211 210 216 289 205 202 174 191 209 238 220 191 137 91 347 11 356 331 267 281 302 350 72 38 0 345 333